Overview Statistics Trail Chart Weather Telemetry Raw packets
 

This is the latest recevied weather packets stored in our database for station/object MB7UUE. If no packets are shown the sender has not sent any weather packets the latest 10 day(s).

<< 40 41 42 43 44 45 46 >>
Time Temp. Humidity Pressure Rain* Wind** Luminosity Snow
1787914325 22.22° C 56% 1005.6 hPa 0 mm - - -
1787914317 22.22° C 56% 1005.6 hPa 0 mm - - -
1787913187 21.67° C 58% 1005.6 hPa 0 mm - - -
1787913177 21.67° C 58% 1005.6 hPa 0 mm - - -
1787912046 21.67° C 60% 1005.6 hPa 0 mm - - -
1787912037 21.67° C 60% 1005.6 hPa 0 mm - - -
1787910906 21.11° C 61% 1005.7 hPa 0 mm - - -
1787910898 21.11° C 61% 1005.6 hPa 0 mm - - -
1787909767 21.11° C 61% 1005.8 hPa 0 mm - - -
1787909757 21.11° C 61% 1005.8 hPa 0 mm - - -
1787908626 20.56° C 64% 1005.7 hPa 0 mm - - -
1787908618 20.56° C 64% 1005.7 hPa 0 mm - - -
1787907486 20.56° C 65% 1005.7 hPa 0 mm - - -
1787907478 20.56° C 65% 1005.7 hPa 0 mm - - -
1787906346 20° C 68% 1005.6 hPa 0 mm - - -
1787906338 20° C 68% 1005.6 hPa 0 mm - - -
1787905206 19.44° C 72% 1005.8 hPa 0 mm - - -
1787905198 19.44° C 72% 1005.9 hPa 0 mm - - -
1787904066 18.33° C 75% 1005.9 hPa 0 mm - - -
1787904058 18.33° C 75% 1005.9 hPa 0 mm - - -
1787902926 18.33° C 79% 1005.6 hPa 0 mm - - -
1787902918 18.33° C 79% 1005.6 hPa 0 mm - - -
1787901787 17.78° C 82% 1005.6 hPa 0 mm - - -
1787901777 17.78° C 82% 1005.6 hPa 0 mm - - -
1787900647 17.22° C 84% 1005.6 hPa 0 mm - - -

* Rain latest hour (hover to see other rain measurements)
** Current wind speed in m/s (hover to see current wind gust speed)